Weather History for Vitoria, Spain

Change the Weather History Date:

Monday, March 18, 2013

  Actual Average Record
Temperature  
Mean Temperature 40 °F -  
Max Temperature 51 °F 59 °F 73 °F (1997)
Min Temperature 30 °F 37 °F 24 °F (2003)
Degree Days  
Heating Degree Days 24    
Moisture  
Dew Point 33 °F    
Average Humidity 77    
Maximum Humidity 100    
Minimum Humidity 37    
Precipitation  
Precipitation 0.00 in - - ()
Sea Level Pressure  
Sea Level Pressure 29.61 in    
Wind  
Wind Speed 6 mph ()    
Max Wind Speed 18 mph    
Max Gust Speed 31 mph    
Visibility 5.6 miles    
Events Rain    
Averages and records for this station are not official NWS values.
T = Trace of Precipitation, MM = Missing Value Source: Averaged Metar Reports

Daily Weather History Graph

Daily Weather History Graph

Search for Another Location

Airport:

Trip Planner

Search our weather history database for the weather conditions in past years. The results will help you decide how hot, cold, wet, or windy it might be!

Date:

Astronomy

Mar. 18, 2013 Rise Set
Actual Time 7:17 AM CET 7:20 PM CET
Civil Twilight 6:49 AM CET 7:49 PM CET
Nautical Twilight 6:16 AM CET 8:22 PM CET
Astronomical Twilight 5:42 AM CET 8:55 PM CET
Moon 10:57 AM CET (3/18) 1:16 AM CET (3/18)
Length of Visible Light 12h 59m
Length of Day
12h 03m
Waxing Crescent, 38% of the Moon is Illuminated
Mar 18
Waxing Crescent
Mar 19
First Quarter
Mar 27
Full
Apr 3
Last Quarter
Apr 10
New

Hourly Weather History & Observations

Time (CET) Temp. Windchill Dew Point Humidity Pressure Visibility Wind Dir Wind Speed Gust Speed Precip Events Conditions
12:00 AM 33.8 °F - 33.8 °F 100% 29.53 in 5.6 mi West 2.3 mph - N/A   Unknown
12:30 AM 33.8 °F - 33.8 °F 100% 29.53 in 5.6 mi Variable 1.2 mph - N/A   Unknown
1:00 AM 32.0 °F - 32.0 °F 100% 29.53 in 5.6 mi West 2.3 mph - N/A   Unknown
1:30 AM 32.0 °F - 32.0 °F 100% 29.53 in 5.0 mi Calm Calm - N/A   Unknown
2:00 AM 32.0 °F - 32.0 °F 100% 29.53 in 5.0 mi Calm Calm - N/A   Unknown
2:30 AM 30.2 °F - 30.2 °F 100% 29.53 in 5.0 mi Variable 1.2 mph - N/A   Scattered Clouds
3:00 AM 32.0 °F - 32.0 °F 100% 29.53 in 3.7 mi North 1.2 mph - N/A   Scattered Clouds
3:30 AM 32.0 °F - 32.0 °F 100% 29.53 in 2.5 mi Calm Calm - N/A   Scattered Clouds
4:00 AM 33.8 °F 30.8 °F 33.8 °F 100% 29.53 in 3.1 mi SSW 3.5 mph - N/A   Partly Cloudy
4:30 AM 33.8 °F 26.4 °F 33.8 °F 100% 29.53 in 3.1 mi SW 9.2 mph - N/A   Mist
5:00 AM 33.8 °F 26.4 °F 33.8 °F 100% 29.53 in 3.1 mi SW 9.2 mph - N/A   Mist
5:30 AM 33.8 °F 24.8 °F 32.0 °F 93% 29.53 in 3.7 mi SSW 12.7 mph - N/A   Unknown
6:00 AM 33.8 °F 25.3 °F 32.0 °F 93% 29.53 in 5.0 mi SSW 11.5 mph - N/A   Unknown
6:30 AM 35.6 °F 28.0 °F 32.0 °F 87% 29.56 in 5.0 mi South 10.4 mph - N/A   Unknown
7:00 AM 35.6 °F 29.2 °F 32.0 °F 87% 29.56 in 6.2 mi South 8.1 mph - N/A   Scattered Clouds
7:30 AM 35.6 °F 28.6 °F 32.0 °F 87% 29.56 in 6.2 mi South 9.2 mph - N/A   Scattered Clouds
8:00 AM 37.4 °F - 30.2 °F 75% 29.56 in - South 1.2 mph - N/A   Clear
8:30 AM 37.4 °F 34.9 °F 30.2 °F 75% 29.56 in - NNE 3.5 mph - N/A   Clear
9:00 AM 37.4 °F 34.9 °F 32.0 °F 81% 29.59 in - North 3.5 mph - N/A   Clear
9:30 AM 39.2 °F - 32.0 °F 75% 29.59 in 6.2 mi NW 1.2 mph - N/A   Scattered Clouds
10:00 AM 41.0 °F 33.5 °F 33.8 °F 76% 29.59 in 6.2 mi West 13.8 mph - N/A   Scattered Clouds
10:30 AM 42.8 °F 34.8 °F 32.0 °F 66% 29.59 in 6.2 mi WSW 17.3 mph - N/A   Scattered Clouds
11:00 AM 44.6 °F 37.4 °F 35.6 °F 71% 29.62 in 6.2 mi WSW 16.1 mph - N/A   Scattered Clouds
11:30 AM 44.6 °F 37.4 °F 33.8 °F 66% 29.62 in 6.2 mi WSW 16.1 mph - N/A   Scattered Clouds
12:00 PM 44.6 °F 36.9 °F 32.0 °F 61% 29.62 in 6.2 mi WSW 18.4 mph - N/A   Scattered Clouds
12:30 PM 48.2 °F - 33.8 °F 58% 29.62 in 6.2 mi West 16.1 mph - N/A   Scattered Clouds
1:00 PM 50.0 °F - 33.8 °F 54% 29.62 in 6.2 mi WSW 13.8 mph - N/A   Mostly Cloudy
1:30 PM 46.4 °F 39.2 °F 33.8 °F 62% 29.65 in 6.2 mi West 18.4 mph 31.1 mph N/A Rain Light Rain
2:00 PM 48.2 °F - 37.4 °F 66% 29.65 in 6.2 mi WNW 12.7 mph - N/A   Scattered Clouds
2:30 PM 50.0 °F - 35.6 °F 58% 29.65 in 6.2 mi WNW 15.0 mph - N/A   Partly Cloudy
3:00 PM 51.8 °F - 33.8 °F 50% 29.65 in 6.2 mi WNW 10.4 mph - N/A   Scattered Clouds
3:30 PM 51.8 °F - 32.0 °F 47% 29.62 in 6.2 mi WNW 13.8 mph - N/A   Scattered Clouds
4:00 PM 51.8 °F - 30.2 °F 44% 29.62 in 6.2 mi WNW 8.1 mph - N/A   Scattered Clouds
4:30 PM 50.0 °F - 24.8 °F 37% 29.62 in 6.2 mi NW 10.4 mph - N/A   Scattered Clouds
5:00 PM 50.0 °F - 28.4 °F 43% 29.65 in 6.2 mi WNW 8.1 mph - N/A   Scattered Clouds
5:30 PM 50.0 °F - 30.2 °F 47% 29.65 in 6.2 mi NNW 5.8 mph - N/A   Scattered Clouds
6:00 PM 50.0 °F - 32.0 °F 50% 29.65 in 6.2 mi WNW 2.3 mph - N/A   Scattered Clouds
6:30 PM 48.2 °F - 32.0 °F 54% 29.65 in 6.2 mi NNW 2.3 mph - N/A   Scattered Clouds
7:00 PM 44.6 °F 38.1 °F 35.6 °F 71% 29.68 in 6.2 mi NNE 13.8 mph - N/A   Scattered Clouds
7:30 PM 44.6 °F 39.2 °F 37.4 °F 76% 29.68 in 6.2 mi NNE 10.4 mph - N/A   Scattered Clouds
8:00 PM 42.8 °F 37.5 °F 35.6 °F 76% 29.68 in 6.2 mi NNE 9.2 mph - N/A   Scattered Clouds
8:30 PM 41.0 °F 39.0 °F 37.4 °F 87% 29.71 in 6.2 mi NE 3.5 mph - N/A   Scattered Clouds
9:00 PM 42.8 °F 39.3 °F 35.6 °F 76% 29.71 in 6.2 mi NNE 5.8 mph - N/A   Scattered Clouds
9:30 PM 41.0 °F - 35.6 °F 81% 29.71 in 6.2 mi Variable 1.2 mph - N/A   Scattered Clouds
10:00 PM 41.0 °F - 35.6 °F 81% 29.71 in 6.2 mi Variable 1.2 mph - N/A   Scattered Clouds
10:30 PM 37.4 °F - 35.6 °F 93% 29.71 in 6.2 mi Calm Calm - N/A   Partly Cloudy
11:00 PM 35.6 °F - 33.8 °F 93% 29.71 in 6.2 mi SSW 2.3 mph - N/A   Partly Cloudy
11:30 PM 37.4 °F - 35.6 °F 93% 29.71 in 6.2 mi Variable 1.2 mph - N/A   Partly Cloudy